Flag for Albania Weather past 2 weeks in Durrës, Albania

Now
66 °F

Broken clouds.


Feels Like: 66 °F
Forecast: 62 / 71 °F
Wind: 3 mph from South

Location: Tirana Airport

Current Time: May 27, 2015 at 8:23:54 PM

Latest Report: May 27, 2015 at 7:50 PM


Visibility: N/A

Pressure: 29.80 "Hg

Humidity: 68%

Dew point: 55 °F

Location of DurrësLocation

Historic Weather in Durrës — Graph

°F

Durrës temperature yesterday

Maximum temperature yesterday: 73 °F (at 3:20 PM)
Minimum temperature yesterday: 55 °F (at 2:20 AM)
Average temperature yesterday: 64 °F

Past Weeks' High & Low Weather Summary

 TemperatureHumidityPressure
High88 °F (May 16, 11:50 AM)94% (May 17, 4:20 AM)30.18 "Hg (May 17, 4:20 AM)
Low50 °F (May 14, 5:20 AM)25% (May 16, 11:50 AM)29.74 "Hg (May 27, 3:50 AM)
Average67 °F65%29.92 "Hg
* Reported May 12 7:20 PM — May 27 7:20 PM, Durrës, Weather by CustomWeather, © 2015

Note: Actual official high and low records may vary slightly from our data, if they occured in-between our weather recording intervals... More about our weather records

Advertising

Durrës weather history for previous 24 hours

 ConditionsComfort  
Time TempWeatherWind HumidityBarometerVisibility
7:20 PM
Wed, May 27
64 °FBroken clouds.5 mph73%29.80 "HgN/A
6:50 PM66 °FBroken clouds.6 mph64%29.77 "HgN/A
6:20 PM66 °FBroken clouds.8 mph68%29.77 "HgN/A
5:50 PM66 °FBroken clouds.8 mph68%29.77 "HgN/A
5:20 PM66 °FBroken clouds.8 mph68%29.77 "HgN/A
4:50 PM66 °FBroken clouds.10 mph60%29.77 "HgN/A
4:20 PM66 °FThunderstorms. Broken clouds.15 mph60%29.77 "HgN/A
3:50 PM70 °FBroken clouds.15 mph60%29.74 "HgN/A
3:20 PM72 °FBroken clouds.9 mph61%29.74 "HgN/A
2:50 PM73 °FBroken clouds.6 mph47%29.74 "HgN/A
2:20 PM73 °FBroken clouds.6 mph47%29.74 "HgN/A
1:50 PM73 °FBroken clouds.2 mph53%29.74 "HgN/A
1:20 PM72 °FBroken clouds.5 mph53%29.74 "HgN/A
12:50 PM72 °FBroken clouds.6 mph50%29.74 "HgN/A
12:20 PM70 °FBroken clouds.2 mph60%29.74 "HgN/A
11:50 AM70 °FBroken clouds.3 mph60%29.74 "HgN/A
11:20 AM68 °FBroken clouds.3 mph64%29.74 "HgN/A
10:50 AM68 °FBroken clouds.2 mph60%29.74 "HgN/A
10:20 AM70 °FBroken clouds.No wind57%29.74 "HgN/A
9:50 AM68 °FBroken clouds.No wind56%29.74 "HgN/A
9:20 AM68 °FBroken clouds.No wind64%29.74 "HgN/A
8:50 AM64 °FPartly sunny.2 mph73%29.74 "HgN/A
8:20 AM63 °FPartly sunny.No wind77%29.74 "HgN/A
7:50 AM61 °FPartly sunny.3 mph77%29.74 "HgN/A
7:20 AM59 °FPartly sunny.2 mph82%29.74 "HgN/A
6:50 AM59 °FPartly sunny.No wind82%29.74 "HgN/A
6:20 AM57 °FPartly sunny.2 mph88%29.74 "HgN/A
5:50 AM54 °FPassing clouds.2 mph94%29.74 "HgN/A
5:20 AM54 °FClear.3 mph94%29.74 "Hg10 mi
4:50 AM54 °FClear.5 mph88%29.74 "Hg10 mi
4:20 AM54 °FClear.2 mph94%29.74 "Hg10 mi
3:50 AM54 °FClear.5 mph94%29.74 "Hg10 mi
3:20 AM55 °FClear.5 mph88%29.77 "Hg10 mi
2:50 AM55 °FClear.3 mph88%29.77 "Hg10 mi
2:20 AM54 °FClear.3 mph94%29.77 "Hg10 mi
1:50 AM55 °FClear.2 mph94%29.77 "Hg10 mi
1:20 AM55 °FClear.No wind88%29.77 "HgN/A
12:50 AM55 °FClear.No wind94%29.77 "Hg10 mi
12:20 AM55 °FClear.3 mph88%29.80 "Hg10 mi
11:20 PM
Tue, May 26
57 °FClear.3 mph88%29.80 "Hg10 mi
10:50 PM59 °FClear.2 mph82%29.80 "Hg10 mi
10:20 PM59 °FClear.2 mph82%29.80 "Hg10 mi
9:50 PM61 °FClear.2 mph77%29.80 "Hg10 mi
9:20 PM63 °FClear.2 mph73%29.80 "Hg10 mi
8:50 PM63 °FSunny.3 mph73%29.80 "Hg10 mi
8:20 PM63 °FSunny.3 mph73%29.77 "Hg10 mi
Weather by CustomWeather, © 2015

See weather overviewHow to use our weather pages